Location: Casteau
(50.5142°N, 4.0161°E)
Time: 01:19:46
(UTC+00:00)

Explorer 11/Cluster Stage 4 - Pass Details

Date: 05 August 2021
Orbit: 467 x 1257 km, 28.8° (Epoch: 18 September)

Event Time Altitude Azimuth Distance (km) Brightness Sun altitude
Rises 10:53:42 0° 242° (WSW) 4,145 10.3 54.5°
Reaches altitude 10° 11:00:01 10° 206° (SSW) 3,225 10.2 54.9°
Maximum altitude 11:01:20 10° 197° (SSW) 3,190 10.3 54.9°
Drops below altitude 10° 11:02:38 10° 188° (S) 3,217 10.4 55.0°
Sets 11:08:54 0° 152° (SSE) 4,097 10.8 55.3°
